Location: Little Maitland River
(43.8022°N, 81.1549°W)
Time: 14:24:51
(UTC+00:00)

FengYun 1-2 T - Pass Details

Date: 09 December 2025
Orbit: 845 x 879 km, 98.8° (Epoch: 19 January)

Event Time Altitude Azimuth Distance (km) Brightness Sun altitude
Rises 10:39:11 0° 9° (N) 3,485 7.4 -22.2°
Reaches altitude 10° 10:41:38 10° 6° (N) 2,544 6.6 -21.8°
Maximum altitude 10:47:08 55° 290° (WNW) 1,048 4.3 -20.8°
Drops below altitude 10° 10:52:37 10° 214° (SSW) 2,526 6.5 -19.9°
Sets 10:55:02 0° 210° (SSW) 3,458 7.2 -19.4°
